[[{"header":{"parameterUnit":"m.s-1","parameterCategory":1,"la1":30.2991,"la2":30.254,"lo1":-89.0895,"lo2":-89.0444,"dy":0.0017,"dx":0.0017,"nx":28,"ny":28,"refTime":"2025-11-29T09:00:00:Z","depth":0,"parameterNumber":2,"parameterNumberName":"U-component_of_WINDS"},"data":[0,0,0,0,0,0,0,0,0,0,0,0,0,0,0,0,0,0,0,0,0,0,0,0,0,0,0,0,0,0,0,0,0,0,0,0,0,0,0,0,0,0,0,0,0,0,0,0,0,0,0,0,0,0,0,0,0,0,-6.0918,-6.0918,0,-6.0958,-6.0958,-6.0959,-6.0745,-6.0739,-6.0733,-6.0727,-6.0767,-6.0774,-6.078,0,0,0,0,0,0,0,0,0,0,0,0,0,-6.0654,-6.066,-6.0918,-6.0918,-6.0919,-6.0958,-6.0958,-6.0959,-6.0747,-6.0739,-6.0732,-6.0725,-6.0765,-6.0773,-6.0781,0,0,0,0,0,0,0,0,0,0,0,0,0,-6.0739,-6.0662,-6.0917,-6.0817,-6.0809,-6.0958,-6.0958,-6.0959,-6.0748,-6.0739,-6.073,-6.0721,-6.0762,-6.0772,-6.0782,-6.1029,0,0,-6.0813,-6.0818,0,0,0,0,0,0,0,0,-6.0734,-6.0749,-6.0832,-6.0825,-6.0815,-6.0837,-6.0879,-6.0982,-6.075,-6.0771,-6.0727,-6.0717,-6.0798,-6.0804,-6.0832,-6.103,-6.1032,-6.0814,-6.082,-6.0825,-6.0828,0,0,0,0,0,0,0,-6.0729,-6.0746,-6.0933,-6.0833,-6.0823,-6.0769,-6.0771,-6.0898,-6.0835,-6.0769,-6.0753,-6.0761,-6.0792,-6.0823,-6.0831,-6.1033,-6.0814,-6.0823,-6.0829,-6.0833,-6.1432,-6.1442,0,0,0,0,0,0,-6.0736,-6.0742,-6.0932,-6.0934,-6.0751,-6.0782,-6.0784,-6.0839,-6.0833,-6.0824,-6.0769,-6.0751,-6.081,-6.082,-6.0832,-6.1118,-6.0825,-6.0834,-6.084,-6.1423,-6.1434,-6.1445,0,0,0,0,0,0,-6.0732,-6.0755,-6.093,-6.0834,-6.0852,-6.0796,-6.086,-6.0845,-6.0876,-6.0834,-6.0821,-6.0813,-6.0803,-6.0818,-6.0981,-6.1116,-6.0839,-6.0848,-6.1411,-6.1426,-6.144,-6.1694,0,0,0,0,0,0,-6.0725,-6.0755,-6.0849,-6.0838,-6.0858,-6.108,-6.0869,-6.0852,-6.0894,-6.0871,-6.0871,-6.0862,-6.0797,-6.0967,-6.0991,-6.1125,-6.0856,-6.1398,-6.1418,-6.1435,-6.1673,-6.1715,-6.1752,0,0,0,0,0,-6.0716,-6.0919,-6.0855,-6.0879,-6.0975,-6.1088,-6.11,-6.1021,-6.0906,-6.0999,-6.0972,-6.0862,-6.1098,-6.0985,-6.1011,-6.115,-6.139,-6.1412,-6.1434,-6.1655,-6.1707,-6.1751,0,0,0,0,0,0,-6.0947,-6.0916,-6.0844,-6.105,-6.1073,-6.1052,-6.1167,-6.1079,-6.1135,-6.1111,-6.101,-6.1012,-6.1192,-6.1187,-6.1062,-6.1387,-6.1224,-6.1252,-6.1383,-6.1432,-6.1471,-6.1467,-6.0864,0,0,0,0,0,-6.1022,-6.1118,-6.1085,-6.1269,-6.1285,-6.1225,-6.1271,-6.1208,-6.1229,-6.1237,-6.1222,-6.1245,-6.1323,-6.1378,-6.1448,-6.1672,-6.1667,-6.178,-6.1819,-6.1852,-6.1877,-6.1992,-6.2041,-6.1518,-6.1518,-6.1517,0,0,-6.1177,-6.1172,-6.1238,-6.1315,-6.1326,-6.1426,-6.1235,-6.1349,-6.1422,-6.1254,-6.1407,-6.1397,-6.1416,-6.161,-6.1694,-6.1611,-6.2021,-6.188,-6.1906,-6.1913,-6.202,-6.207,-6.2114,-6.1533,-6.153,-6.1528,0,0,-6.1511,-6.1518,-6.1671,-6.1686,-6.1705,-6.1663,-6.1701,-6.1693,-6.168,-6.1831,-6.1707,-6.1792,-6.1931,-6.1949,-6.1976,-6.2316,-6.2217,-6.2342,-6.2547,-6.2661,-6.2702,-6.2738,-6.2857,-6.2901,-6.2368,-6.2368,-6.2369,0,-6.1701,-6.1848,-6.1761,-6.1883,-6.192,-6.1773,-6.1926,-6.1945,-6.1987,-6.2015,-6.1921,-6.2091,-6.2094,-6.2289,-6.2372,-6.24,-6.2437,-6.2341,-6.2703,-6.2738,-6.2771,-6.2883,-6.2928,-6.2383,-6.2381,-6.238,-6.2378,0,-6.208,-6.2184,-6.2305,-6.2348,-6.2398,-6.2536,-6.2469,-6.253,-6.2463,-6.2431,-6.2586,-6.2585,-6.2651,-6.2693,-6.2629,-6.2879,-6.2826,-6.2721,-6.2554,-6.2837,-6.2941,-6.2983,-6.2405,-6.2399,-6.2395,-6.2391,0,0,-6.2559,-6.2552,-6.2598,-6.2615,-6.2625,-6.2703,-6.2834,-6.2899,-6.2952,-6.2986,-6.3091,-6.3212,-6.3113,-6.3144,-6.3081,-6.3181,-6.3448,-6.3061,-6.306,-6.3132,-6.372,-6.3799,-6.385,-6.3383,-6.3391,-6.3397,-6.3718,0,-6.2884,-6.3106,-6.3031,-6.3257,-6.335,-6.3212,-6.3325,-6.3343,-6.3317,-6.3392,-6.3362,-6.3448,-6.3313,-6.333,-6.3424,-6.3396,-6.3564,-6.3372,-6.3478,-6.3483,-6.3476,-6.3905,-6.3988,-6.4291,-6.3758,-6.3765,-6.377,0,-6.3292,-6.3341,-6.3577,-6.3569,-6.3606,-6.3709,-6.3761,-6.3835,-6.3852,-6.3826,-6.3862,-6.3776,-6.3902,-6.3737,-6.3908,-6.3779,-6.3818,-6.3811,-6.3821,-6.3826,-6.3642,-6.392,-6.4386,-6.4431,-6.3834,-6.3829,-6.3824,0,-6.3615,-6.3741,-6.3897,-6.3916,-6.3912,-6.3988,-6.3989,-6.3997,-6.4041,-6.4087,-6.4114,-6.4175,-6.4208,-6.4256,-6.4189,-6.4075,-6.4369,-6.4199,-6.4349,-6.4351,-6.4415,-6.4412,-6.4893,-6.4445,-6.4445,-6.4444,-6.4443,0,-6.3984,-6.4133,-6.4042,-6.4138,-6.43,-6.4212,-6.4374,-6.436,-6.4369,-6.4459,-6.4344,-6.443,-6.4338,-6.4415,-6.4364,-6.4512,-6.4528,-6.4509,-6.4493,-6.4518,-6.4521,-6.4541,-6.4517,-6.4456,-6.4453,-6.4451,-6.4449,0,-6.4371,-6.4317,-6.4478,-6.4461,-6.446,-6.458,-6.4564,-6.4652,-6.4617,-6.4733,-6.4755,-6.4701,-6.4786,-6.4725,-6.481,-6.4775,-6.4969,-6.4925,-6.4963,-6.495,-6.5103,-6.5089,-6.5612,-6.5675,-6.519,-6.5195,-6.5199,0,-6.4609,-6.472,-6.4715,-6.4767,-6.4776,-6.4862,-6.4906,-6.4824,-6.4874,-6.4901,-6.4985,-6.5061,-6.5116,-6.5259,-6.5227,-6.5291,-6.5246,-6.5425,-6.5254,-6.5275,-6.5245,-6.5239,-6.5248,-6.5459,-6.5464,-6.5469,-6.5473,0,-6.5036,-6.5003,-6.5071,-6.513,-6.5186,-6.5228,-6.526,-6.531,-6.5226,-6.5288,-6.5374,-6.5418,-6.5504,-6.558,-6.5632,-6.5632,-6.5539,-6.5527,-6.5565,-6.559,-6.5607,-6.5597,-6.5055,-6.5515,-6.5511,-6.5508,-6.5505,-6.5504,-6.5354,-6.5445,-6.5456,-6.5534,-6.5551,-6.5584,-6.5664,-6.5641,-6.5711,-6.5775,-6.5722,-6.5825,-6.5837,-6.5898,-6.591,-6.5988,-6.5914,-6.5969,-6.5982,-6.5997,-6.6017,-6.5597,-6.5997,-6.5996,-6.5995,-6.5994,-6.5993,0,-6.5772,-6.5772,-6.5846,-6.5895,-6.5957,-6.5865,-6.5896,-6.5954,-6.6046,-6.6066,-6.6123,-6.6221,-6.6294,-6.6268,-6.6332,-6.64,-6.6358,-6.6419,-6.6412,-6.6413,-6.6081,-6.6041,-6.6451,-6.6451,-6.6451,-6.6451,-6.6451,-6.6451,-6.5997,-6.6146,-6.6115,-6.6271,-6.6269,-6.6369,-6.6394,-6.6424,-6.6439,-6.6554,-6.6614,-6.6596,-6.6598,-6.6661,-6.6723,-6.6713,-6.6741,-6.6818,-6.6792,-6.6482,-6.6437,-6.6393,-6.6355,-6.6825,-6.6826,-6.7117,-6.712,-6.7122]},{"header":{"parameterUnit":"m.s-1","parameterCategory":1,"la1":30.2991,"la2":30.254,"lo1":-89.0895,"lo2":-89.0444,"dy":0.0017,"dx":0.0017,"nx":28,"ny":28,"refTime":"2025-11-29T09:00:00:Z","depth":0,"parameterNumber":3,"parameterNumberName":"V-component_of_WINDS"},"data":[0,0,0,0,0,0,0,0,0,0,0,0,0,0,0,0,0,0,0,0,0,0,0,0,0,0,0,0,0,0,0,0,0,0,0,0,0,0,0,0,0,0,0,0,0,0,0,0,0,0,0,0,0,0,0,0,0,0,-2.122,-2.1221,0,-2.1302,-2.1303,-2.1304,-2.1321,-2.1321,-2.132,-2.132,-2.14,-2.1403,-2.1406,0,0,0,0,0,0,0,0,0,0,0,0,0,-2.1076,-2.1079,-2.122,-2.1221,-2.1222,-2.1302,-2.1303,-2.1304,-2.1322,-2.1321,-2.132,-2.132,-2.1399,-2.1403,-2.1406,0,0,0,0,0,0,0,0,0,0,0,0,0,-2.1146,-2.108,-2.122,-2.1241,-2.1244,-2.1301,-2.1303,-2.1304,-2.1322,-2.1321,-2.132,-2.1319,-2.1398,-2.1402,-2.1406,-2.1448,0,0,-2.1418,-2.142,0,0,0,0,0,0,0,0,-2.1142,-2.1152,-2.1237,-2.124,-2.1243,-2.1301,-2.1281,-2.1352,-2.1322,-2.1292,-2.132,-2.1319,-2.1368,-2.1374,-2.1391,-2.1452,-2.1455,-2.1419,-2.1421,-2.1423,-2.1424,0,0,0,0,0,0,0,-2.1137,-2.1148,-2.1252,-2.1238,-2.1242,-2.1245,-2.1254,-2.1295,-2.1334,-2.1295,-2.1296,-2.1306,-2.1369,-2.1387,-2.1393,-2.1457,-2.1419,-2.1422,-2.1425,-2.1426,-2.1553,-2.1554,0,0,0,0,0,0,-2.113,-2.1144,-2.125,-2.1255,-2.1189,-2.1248,-2.1258,-2.1283,-2.1333,-2.134,-2.1306,-2.1306,-2.1381,-2.1388,-2.1396,-2.1447,-2.1423,-2.1427,-2.1429,-2.1552,-2.1553,-2.1554,0,0,0,0,0,0,-2.1126,-2.1139,-2.1247,-2.12,-2.1214,-2.1251,-2.1279,-2.1285,-2.1303,-2.1342,-2.1349,-2.1318,-2.138,-2.139,-2.1435,-2.145,-2.1429,-2.1432,-2.1551,-2.1552,-2.1554,-2.155,0,0,0,0,0,0,-2.1122,-2.1138,-2.1155,-2.12,-2.1216,-2.1285,-2.128,-2.1287,-2.131,-2.1311,-2.1355,-2.1361,-2.1381,-2.1429,-2.1439,-2.1455,-2.1435,-2.155,-2.1552,-2.1553,-2.1549,-2.1551,-2.1553,0,0,0,0,0,-2.1117,-2.1151,-2.1156,-2.1169,-2.1239,-2.1286,-2.1295,-2.1317,-2.1312,-2.1329,-2.1353,-2.136,-2.1447,-2.1433,-2.1444,-2.1462,-2.1549,-2.1551,-2.1553,-2.1548,-2.155,-2.1553,0,0,0,0,0,0,-2.1106,-2.1157,-2.1163,-2.1213,-2.1245,-2.1289,-2.1311,-2.132,-2.1354,-2.1353,-2.1378,-2.1388,-2.143,-2.1451,-2.1434,-2.1504,-2.1497,-2.1502,-2.1489,-2.1492,-2.1494,-2.1488,-2.1439,0,0,0,0,0,-2.111,-2.1145,-2.1187,-2.1226,-2.1242,-2.1274,-2.1295,-2.1309,-2.1343,-2.1357,-2.1385,-2.1416,-2.145,-2.1472,-2.1506,-2.1552,-2.156,-2.1569,-2.1571,-2.1573,-2.1576,-2.1599,-2.1603,-2.1561,-2.1561,-2.1561,0,0,-2.1117,-2.1149,-2.117,-2.1225,-2.1252,-2.1285,-2.1285,-2.1322,-2.1347,-2.1362,-2.1405,-2.1427,-2.1463,-2.1508,-2.1529,-2.1526,-2.1589,-2.1575,-2.1576,-2.1579,-2.1602,-2.1606,-2.1609,-2.1563,-2.1563,-2.1562,0,0,-2.1148,-2.1176,-2.1211,-2.1238,-2.1278,-2.1298,-2.1306,-2.1349,-2.1364,-2.1408,-2.1419,-2.1448,-2.1507,-2.1533,-2.1553,-2.159,-2.1597,-2.1601,-2.1611,-2.1633,-2.1636,-2.1639,-2.1651,-2.1655,-2.1604,-2.1604,-2.1604,0,-2.1151,-2.1204,-2.1228,-2.1264,-2.1287,-2.1302,-2.1337,-2.1361,-2.1409,-2.1424,-2.1421,-2.1494,-2.152,-2.1569,-2.1578,-2.1595,-2.1603,-2.1596,-2.1634,-2.1637,-2.1641,-2.1652,-2.1656,-2.1604,-2.1604,-2.1604,-2.1604,0,-2.1206,-2.1242,-2.1266,-2.1312,-2.1338,-2.1373,-2.14,-2.1423,-2.1434,-2.1454,-2.1497,-2.1529,-2.1568,-2.1581,-2.1593,-2.1631,-2.1628,-2.1629,-2.1623,-2.1644,-2.1655,-2.166,-2.1604,-2.1604,-2.1604,-2.1604,0,0,-2.1233,-2.1291,-2.1299,-2.1319,-2.1364,-2.1392,-2.1426,-2.1465,-2.1483,-2.1515,-2.1544,-2.1592,-2.1593,-2.1616,-2.163,-2.165,-2.1675,-2.1648,-2.1649,-2.1651,-2.1717,-2.1715,-2.172,-2.168,-2.1681,-2.1681,-2.1713,0,-2.1268,-2.1331,-2.1352,-2.1404,-2.1436,-2.145,-2.148,-2.1509,-2.1528,-2.1558,-2.1579,-2.1612,-2.1611,-2.1625,-2.1645,-2.1668,-2.1688,-2.1666,-2.1704,-2.1706,-2.1694,-2.1726,-2.1725,-2.1753,-2.1718,-2.1719,-2.1719,0,-2.1317,-2.135,-2.1405,-2.1443,-2.1458,-2.1484,-2.152,-2.1549,-2.1581,-2.1594,-2.1618,-2.1631,-2.1665,-2.1657,-2.1704,-2.1688,-2.1704,-2.1718,-2.1719,-2.1723,-2.1713,-2.1729,-2.1763,-2.1767,-2.1727,-2.1726,-2.1725,0,-2.1329,-2.1387,-2.1427,-2.1444,-2.149,-2.1508,-2.1528,-2.156,-2.1581,-2.1612,-2.1626,-2.166,-2.1679,-2.1705,-2.1725,-2.1718,-2.1769,-2.1763,-2.1779,-2.1779,-2.1789,-2.1788,-2.1825,-2.1802,-2.1802,-2.1802,-2.1802,0,-2.1365,-2.1398,-2.1433,-2.1457,-2.1493,-2.1516,-2.1551,-2.1571,-2.1599,-2.1626,-2.1641,-2.1666,-2.1692,-2.172,-2.1736,-2.1771,-2.178,-2.1789,-2.1793,-2.1788,-2.1786,-2.1799,-2.1797,-2.1803,-2.1803,-2.1802,-2.1802,0,-2.1385,-2.141,-2.1454,-2.1493,-2.1504,-2.1528,-2.1562,-2.1585,-2.1604,-2.1638,-2.1647,-2.1677,-2.1711,-2.1734,-2.1777,-2.1788,-2.1825,-2.1829,-2.1814,-2.1816,-2.183,-2.1827,-2.1875,-2.1882,-2.1855,-2.1855,-2.1855,0,-2.1406,-2.1431,-2.1473,-2.1492,-2.1512,-2.1543,-2.1565,-2.1588,-2.1609,-2.1647,-2.1665,-2.17,-2.1729,-2.1781,-2.1806,-2.1838,-2.1842,-2.1856,-2.1847,-2.184,-2.184,-2.1838,-2.184,-2.1858,-2.1858,-2.1858,-2.1858,0,-2.1439,-2.145,-2.1481,-2.1516,-2.1541,-2.1569,-2.1598,-2.1613,-2.164,-2.1663,-2.1698,-2.172,-2.1763,-2.1796,-2.1831,-2.185,-2.1858,-2.1861,-2.1866,-2.186,-2.185,-2.1854,-2.1817,-2.186,-2.1859,-2.1859,-2.1859,-2.1859,-2.1459,-2.1482,-2.1514,-2.1547,-2.1571,-2.1597,-2.162,-2.1642,-2.1671,-2.1708,-2.172,-2.1755,-2.1785,-2.1832,-2.1851,-2.1878,-2.1876,-2.1884,-2.1886,-2.1887,-2.1886,-2.1846,-2.1884,-2.1884,-2.1884,-2.1884,-2.1884,0,-2.1493,-2.1514,-2.1544,-2.1583,-2.1609,-2.1615,-2.1646,-2.1667,-2.1698,-2.1725,-2.1753,-2.1791,-2.1823,-2.185,-2.1882,-2.1898,-2.1903,-2.1906,-2.1904,-2.1908,-2.1886,-2.1878,-2.1901,-2.1901,-2.1901,-2.1901,-2.1901,-2.1901,-2.1513,-2.155,-2.1564,-2.1612,-2.1633,-2.1668,-2.1685,-2.1708,-2.173,-2.1772,-2.1799,-2.1816,-2.1843,-2.1877,-2.1906,-2.1913,-2.1923,-2.1925,-2.1933,-2.1912,-2.191,-2.1908,-2.19,-2.1928,-2.1928,-2.1952,-2.1953,-2.1953]}]]